This demonstration page uses our WeatherBlox Daily Observations layout. Learn more.

Left ArrowRight Arrow

41.55636, -103.73856

Hourly Observations for July 1, 2020

Temp ( °F °C ) Dew Point ( °F °C ) Humidity (%) Winds ( mph kmh ) Pressure ( in mb ) Visibility ( mi km ) Precip ( " mm )
6:58 pm 18:58 Clear 75 23.7 31 -0.8 20 20 ENE 14 22 29.79 1009 10 16 0.00 0.00
7:58 pm 19:58 Clear 69 20.5 34 1.1 28 28 ENE 7 11 29.83 1010 10 16 0.00 0.00
8:58 pm 20:58 Mostly Cloudy 65 18.6 33 0.6 30 30 SE 12 19 29.85 1011 10 16 0.00 0.00
9:58 pm 21:58 Mostly Cloudy 65 18.4 34 1.2 32 32 WNW 10 17 29.90 1013 10 16 0.00 0.00
10:58 pm 22:58 Mostly Clear 65 18.2 34 1.3 32 32 NW 7 11 29.89 1012 10 16 0.00 0.00
11:58 pm 23:58 Clear 62 16.4 34 1.3 36 36 W 7 11 29.91 1013 10 16 0.00 0.00
12:58 am 00:58 Mostly Cloudy 58 14.4 36 2.2 44 44 SW 7 11 29.92 1013 10 16 0.00 0.00
1:58 am 01:58 Cloudy 62 16.8 34 1.3 35 35 SSW 3 6 29.89 1012 10 16 0.00 0.00
2:58 am 02:58 Mostly Cloudy 58 14.6 38 3.2 47 47 SSW 6 9 29.90 1013 10 16 0.00 0.00
3:58 am 03:58 Mostly Cloudy 56 13.3 37 2.6 49 49 Calm 29.91 1013 10 16 0.00 0.00
4:58 am 04:58 Mostly Cloudy 53 11.6 35 1.8 51 51 SSW 6 9 29.92 1013 10 16 0.00 0.00
5:58 am 05:58 Sunny 52 11 35 1.7 53 53 SW 7 11 29.93 1014 10 16 0.00 0.00
6:58 am 06:58 Sunny 58 14.3 36 2 44 44 WSW 5 7 29.93 1014 10 16 0.00 0.00
7:58 am 07:58 Sunny 67 19.4 32 0.1 27 27 WSW 6 9 29.94 1014 10 16 0.00 0.00
8:58 am 08:58 Sunny 70 21.2 37 2.8 30 30 SSW 14 22 29.95 1014 10 16 0.00 0.00
9:58 am 09:58 Sunny 75 23.9 33 0.8 22 22 SSW 14 22 29.93 1014 10 16 0.00 0.00
10:58 am 10:58 Sunny 78 25.7 32 0.1 19 19 SSW 13 20 29.92 1013 10 16 0.00 0.00
11:58 am 11:58 Sunny 81 27.4 33 0.3 17 17 SSW 22 35 29.91 1013 10 16 0.00 0.00
12:58 pm 12:58 Sunny 83 28.6 30 -1 14 14 SSW 23 37 29.89 1012 10 16 0.00 0.00
1:58 pm 13:58 Partly Cloudy 82 28 28 -2.3 14 14 SSW 22 35 29.88 1012 10 16 0.00 0.00
2:58 pm 14:58 Partly Cloudy 87 30.3 26 -3.5 11 11 SW 22 35 29.87 1011 10 16 0.00 0.00
3:58 pm 15:58 Sunny 87 30.3 26 -3.4 11 11 SSW 13 20 29.85 1011 10 16 0.00 0.00
4:58 pm 16:58 Sunny 86 30.2 28 -2.5 12 12 SSE 16 26 29.83 1010 10 16 0.00 0.00
5:58 pm 17:58 Mostly Sunny 86 30.1 28 -2.2 12 12 S 28 44 29.83 1010 10 16 0.00 0.00

Powered by AerisWeather